When you browse on this site, cookies collect data to enhance your experience and personalize the content and advertising you see.
Visit our Privacy Policy to learn more. By continuing to use the site, you agree to this use of cookies and data.
  • In Latvia
  • List of Countries
  • For 7 days
  • Water Temperature
  • Satellite Maps
  • Weather Map
  • Weather Widgets
  • user-avatar
    Login

    Hourly Weather Sidi Bu-l-Abbas

    Today, 20 May, Monday

    Time Temperature Precipitation Wind Pressure Humidity
    00:00 +16°C° 0 mm 1 mps 718 mmHg 53%
    01:00 +16°C° 0 mm 1 mps 718 mmHg 52%
    02:00 +16°C° 0 mm 1 mps 717 mmHg 52%
    03:00 +15°C° 0 mm 1 mps 717 mmHg 52%
    04:00 +16°C° 0 mm 1 mps 717 mmHg 51%
    05:00 +16°C° 0 mm 1 mps 717 mmHg 50%
    06:00 +19°C° 0 mm 1 mps 717 mmHg 40%
    07:00 +20°C° 0 mm 1 mps 718 mmHg 36%
    08:00 +21°C° 0 mm 1 mps 718 mmHg 33%
    09:00 +22°C° 0 mm 1 mps 718 mmHg 29%
    10:00 +24°C° 0 mm 1 mps 718 mmHg 28%
    11:00 +25°C° 0 mm 2 mps 718 mmHg 28%
    12:00 +26°C° 0 mm 3 mps 718 mmHg 27%
    13:00 +26°C° 0 mm 3 mps 718 mmHg 28%
    14:00 +27°C° 0 mm 4 mps 718 mmHg 29%
    15:00 +27°C° 0 mm 5 mps 717 mmHg 30%
    16:00 +26°C° 0 mm 5 mps 717 mmHg 35%
    17:00 +25°C° 0 mm 5 mps 717 mmHg 39%
    18:00 +23°C° 0 mm 5 mps 717 mmHg 43%
    19:00 +22°C° 0 mm 3 mps 717 mmHg 46%
    20:00 +21°C° 0 mm 2 mps 718 mmHg 50%
    21:00 +19°C° 0 mm 0 mps 718 mmHg 53%
    22:00 +18°C° 0 mm 0 mps 718 mmHg 56%
    23:00 +18°C° 0 mm 0 mps 718 mmHg 58%

    Tomorrow, 21 May, Tuesday

    Time Temperature Precipitation Wind Pressure Humidity
    00:00 +17°C° 0 mm 0 mps 718 mmHg 61%
    01:00 +17°C° 0 mm 0 mps 718 mmHg 61%
    02:00 +17°C° 0 mm 0 mps 717 mmHg 62%
    03:00 +16°C° 0 mm 0 mps 717 mmHg 62%
    04:00 +18°C° 0 mm 1 mps 717 mmHg 61%
    05:00 +19°C° 0 mm 1 mps 717 mmHg 61%
    06:00 +19°C° 0 mm 1 mps 718 mmHg 60%
    07:00 +20°C° 0 mm 1 mps 718 mmHg 52%
    08:00 +22°C° 0 mm 1 mps 719 mmHg 44%
    09:00 +23°C° 0 mm 2 mps 719 mmHg 36%
    10:00 +24°C° 0 mm 3 mps 719 mmHg 35%
    11:00 +25°C° 0 mm 3 mps 719 mmHg 34%
    12:00 +26°C° 0 mm 4 mps 719 mmHg 32%
    13:00 +27°C° 0 mm 5 mps 719 mmHg 33%
    14:00 +27°C° 0 mm 5 mps 719 mmHg 33%
    15:00 +27°C° 0 mm 6 mps 719 mmHg 33%
    16:00 +26°C° 0 mm 5 mps 719 mmHg 36%
    17:00 +25°C° 0 mm 5 mps 719 mmHg 38%
    18:00 +23°C° 0 mm 5 mps 719 mmHg 41%
    19:00 +22°C° 0 mm 3 mps 719 mmHg 44%
    20:00 +21°C° 0 mm 2 mps 720 mmHg 48%
    21:00 +19°C° 0 mm 0 mps 720 mmHg 51%
    22:00 +18°C° 0 mm 0 mps 720 mmHg 54%
    23:00 +18°C° 0 mm 0 mps 720 mmHg 57%

    Day after tomorrow, 22 May, Wednesday

    Time Temperature Precipitation Wind Pressure Humidity
    00:00 +17°C° 0 mm 0 mps 720 mmHg 60%
    01:00 +16°C° 0 mm 0 mps 720 mmHg 63%
    02:00 +16°C° 0 mm 0 mps 720 mmHg 66%
    03:00 +15°C° 0 mm 0 mps 720 mmHg 68%
    04:00 +16°C° 0 mm 0 mps 720 mmHg 67%
    05:00 +16°C° 0 mm 0 mps 720 mmHg 65%
    06:00 +17°C° 0 mm 0 mps 720 mmHg 63%
    07:00 +18°C° 0 mm 0 mps 721 mmHg 55%
    08:00 +20°C° 0 mm 0 mps 721 mmHg 48%
    09:00 +23°C° 0 mm 1 mps 722 mmHg 40%
    10:00 +24°C° 0 mm 1 mps 722 mmHg 37%
    11:00 +26°C° 0 mm 2 mps 722 mmHg 34%
    12:00 +27°C° 0 mm 3 mps 722 mmHg 30%
    13:00 +27°C° 0 mm 4 mps 722 mmHg 30%
    14:00 +28°C° 0 mm 4 mps 721 mmHg 29%
    15:00 +28°C° 0 mm 5 mps 721 mmHg 28%
    16:00 +27°C° 0 mm 5 mps 721 mmHg 29%
    17:00 +27°C° 0 mm 5 mps 721 mmHg 31%
    18:00 +26°C° 0 mm 5 mps 721 mmHg 33%
    19:00 +23°C° 0 mm 4 mps 721 mmHg 37%
    20:00 +22°C° 0 mm 3 mps 722 mmHg 41%
    21:00 +21°C° 0 mm 2 mps 722 mmHg 45%
    22:00 +21°C° 0 mm 1 mps 722 mmHg 48%
    23:00 +21°C° 0 mm 1 mps 721 mmHg 51%

    23 May, Thursday

    Time Temperature Precipitation Wind Pressure Humidity
    00:00 +20°C° 0 mm 1 mps 721 mmHg 54%
    01:00 +20°C° 0 mm 1 mps 721 mmHg 54%
    02:00 +19°C° 0 mm 1 mps 721 mmHg 53%
    03:00 +19°C° 0 mm 1 mps 721 mmHg 53%
    04:00 +19°C° 0 mm 1 mps 721 mmHg 53%
    05:00 +20°C° 0 mm 1 mps 721 mmHg 53%
    06:00 +18°C° 0 mm 0 mps 721 mmHg 53%
    07:00 +22°C° 0 mm 1 mps 722 mmHg 45%
    08:00 +24°C° 0 mm 1 mps 722 mmHg 38%
    09:00 +26°C° 0 mm 2 mps 722 mmHg 30%
    10:00 +27°C° 0 mm 2 mps 722 mmHg 27%
    11:00 +29°C° 0 mm 3 mps 722 mmHg 23%
    12:00 +30°C° 0 mm 3 mps 722 mmHg 20%
    13:00 +30°C° 0 mm 4 mps 722 mmHg 20%
    14:00 +32°C° 0 mm 4 mps 721 mmHg 20%
    15:00 +32°C° 0 mm 5 mps 721 mmHg 20%
    16:00 +30°C° 0 mm 5 mps 721 mmHg 22%
    17:00 +29°C° 0 mm 5 mps 721 mmHg 24%
    18:00 +28°C° 0 mm 5 mps 721 mmHg 26%
    19:00 +27°C° 0 mm 4 mps 721 mmHg 28%
    20:00 +26°C° 0 mm 2 mps 721 mmHg 31%
    21:00 +24°C° 0 mm 1 mps 721 mmHg 34%
    22:00 +23°C° 0 mm 1 mps 721 mmHg 37%
    23:00 +20°C° 0 mm 0 mps 721 mmHg 40%

    24 May, Friday

    Time Temperature Precipitation Wind Pressure Humidity
    00:00 +20°C° 0 mm 0 mps 721 mmHg 44%
    01:00 +19°C° 0 mm 0 mps 721 mmHg 43%
    02:00 +19°C° 0 mm 0 mps 720 mmHg 43%
    03:00 +18°C° 0 mm 0 mps 720 mmHg 43%
    04:00 +19°C° 0 mm 0 mps 720 mmHg 44%
    05:00 +19°C° 0 mm 0 mps 721 mmHg 44%
    06:00 +20°C° 0 mm 0 mps 721 mmHg 44%
    07:00 +23°C° 0 mm 1 mps 721 mmHg 38%
    08:00 +25°C° 0 mm 1 mps 722 mmHg 31%
    09:00 +27°C° 0 mm 1 mps 722 mmHg 24%
    10:00 +28°C° 0 mm 2 mps 722 mmHg 22%
    11:00 +30°C° 0 mm 2 mps 722 mmHg 20%
    12:00 +31°C° 0 mm 3 mps 722 mmHg 18%
    13:00 +33°C° 0 mm 4 mps 722 mmHg 18%
    14:00 +33°C° 0 mm 4 mps 721 mmHg 18%
    15:00 +33°C° 0 mm 5 mps 721 mmHg 18%
    16:00 +33°C° 0 mm 5 mps 721 mmHg 20%
    17:00 +32°C° 0 mm 5 mps 721 mmHg 21%
    18:00 +30°C° 0 mm 5 mps 721 mmHg 23%
    19:00 +29°C° 0 mm 4 mps 721 mmHg 25%
    20:00 +27°C° 0 mm 3 mps 721 mmHg 28%
    21:00 +26°C° 0 mm 2 mps 722 mmHg 31%
    22:00 +25°C° 0 mm 1 mps 721 mmHg 32%
    23:00 +24°C° 0 mm 1 mps 721 mmHg 34%

    25 May, Saturday

    Time Temperature Precipitation Wind Pressure Humidity
    00:00 +24°C° 0 mm 1 mps 721 mmHg 36%
    01:00 +21°C° 0 mm 0 mps 721 mmHg 38%
    02:00 +21°C° 0 mm 0 mps 720 mmHg 40%
    03:00 +20°C° 0 mm 0 mps 720 mmHg 42%
    04:00 +21°C° 0 mm 0 mps 720 mmHg 42%
    05:00 +21°C° 0 mm 0 mps 721 mmHg 42%
    06:00 +22°C° 0 mm 0 mps 721 mmHg 42%
    07:00 +25°C° 0 mm 1 mps 721 mmHg 37%
    08:00 +27°C° 0 mm 1 mps 722 mmHg 31%
    09:00 +29°C° 0 mm 1 mps 722 mmHg 26%
    10:00 +30°C° 0 mm 2 mps 722 mmHg 24%
    11:00 +31°C° 0 mm 3 mps 722 mmHg 23%
    12:00 +33°C° 0 mm 4 mps 722 mmHg 21%
    13:00 +33°C° 0 mm 5 mps 722 mmHg 21%
    14:00 +33°C° 0 mm 5 mps 721 mmHg 21%
    15:00 +33°C° 0 mm 5 mps 721 mmHg 22%
    16:00 +32°C° 0 mm 5 mps 721 mmHg 23%
    17:00 +30°C° 0 mm 5 mps 721 mmHg 24%
    18:00 +29°C° 0 mm 4 mps 721 mmHg 25%
    19:00 +28°C° 0 mm 3 mps 721 mmHg 27%
    20:00 +27°C° 0 mm 2 mps 722 mmHg 29%
    21:00 +25°C° 0 mm 1 mps 722 mmHg 31%
    22:00 +25°C° 0 mm 1 mps 722 mmHg 32%
    23:00 +24°C° 0 mm 1 mps 721 mmHg 33%
    Show more